Starlink 3947

operational
NORAD ID: 52607 Int'l Des: 2022-052 Owner: SPXS Country: US Constellation: starlink
LEOCIRCULAR

About Starlink 3947

Description loading...

Live Position

Loading 3D Globe...

Upcoming Passes

Altitude History

Altitude vs Time

uPlot chart will show altitude changes over time

Two-Line Element Set

1 52607U 22052K 26066.03430223 .00001181 00000-0 92268-4 0 9990
2 52607 53.2179 296.0522 0001499 77.0663 283.0497 15.08838988210371
Epoch: Mar 7, 2026 • Age: 15 hours

Current Status

Altitude 551.9 km
Velocity 7.59 km/s
Sub-Earth Point -35.33°S, 121.89°E
Launch Date May 14, 2022
Age 3.8 years
Type internet

Technical Details

Classification Payload
Mass 297.00 kg
Dry Mass 275.00 kg
Total Mass 297.00 kg
Length 0.20 m
Diameter 2.80 m
Span 9.00 m
Shape Box + pan
Manufacturer SPXS
Bus Type Starlink
Phase Status In Orbit
Owner/State SPXS/US

Large Constellations

Loading constellations...